Hourly Weather Gembartowka

Today, 23 October, Friday

Time Temperature Precipitation Wind Pressure Humidity
00:00 +12°C° 0 mm 3 mps 740 mmHg 75%
01:00 +12°C° 0 mm 3 mps 740 mmHg 75%
02:00 +12°C° 0 mm 3 mps 740 mmHg 76%
03:00 +11°C° 0 mm 3 mps 740 mmHg 77%
04:00 +11°C° 0 mm 3 mps 739 mmHg 78%
05:00 +11°C° 0 mm 3 mps 739 mmHg 79%
06:00 +11°C° 0 mm 3 mps 739 mmHg 79%
07:00 +11°C° 0 mm 3 mps 739 mmHg 79%
08:00 +12°C° 0 mm 3 mps 739 mmHg 75%
09:00 +13°C° 0 mm 3 mps 739 mmHg 72%
10:00 +14°C° 0 mm 4 mps 739 mmHg 68%
11:00 +16°C° 0 mm 3 mps 738 mmHg 65%
12:00 +17°C° 0 mm 3 mps 738 mmHg 63%
13:00 +18°C° 0 mm 3 mps 738 mmHg 60%
14:00 +17°C° 0 mm 2 mps 738 mmHg 63%
15:00 +17°C° 0 mm 2 mps 738 mmHg 66%
16:00 +16°C° 0 mm 1 mps 738 mmHg 69%
17:00 +16°C° 0 mm 2 mps 738 mmHg 71%
18:00 +15°C° 0 mm 2 mps 737 mmHg 73%
19:00 +14°C° 0 mm 2 mps 737 mmHg 75%
20:00 +14°C° 0 mm 2 mps 737 mmHg 76%
21:00 +14°C° 0 mm 2 mps 737 mmHg 77%
22:00 +14°C° 0 mm 2 mps 737 mmHg 77%
23:00 +13°C° 0 mm 2 mps 737 mmHg 79%

Tomorrow, 24 October, Saturday

Time Temperature Precipitation Wind Pressure Humidity
00:00 +13°C° 0 mm 2 mps 737 mmHg 80%
01:00 +13°C° 0 mm 2 mps 737 mmHg 81%
02:00 +13°C° 0.2 mm 2 mps 737 mmHg 82%
03:00 +13°C° 0.2 mm 2 mps 737 mmHg 84%
04:00 +12°C° 0.2 mm 3 mps 736 mmHg 85%
05:00 +12°C° 1.5 mm 3 mps 737 mmHg 88%
06:00 +11°C° 1.5 mm 4 mps 737 mmHg 91%
07:00 +11°C° 1.5 mm 4 mps 737 mmHg 94%
08:00 +12°C° 0.8 mm 5 mps 737 mmHg 93%
09:00 +12°C° 0.8 mm 5 mps 737 mmHg 91%
10:00 +13°C° 0.8 mm 5 mps 738 mmHg 90%
11:00 +14°C° 0.1 mm 5 mps 738 mmHg 85%
12:00 +14°C° 0.1 mm 5 mps 739 mmHg 81%
13:00 +15°C° 0.1 mm 5 mps 739 mmHg 77%
14:00 +14°C° 0.1 mm 4 mps 739 mmHg 78%
15:00 +14°C° 0.1 mm 4 mps 739 mmHg 78%
16:00 +14°C° 0.1 mm 3 mps 740 mmHg 79%
17:00 +13°C° 0 mm 3 mps 740 mmHg 82%
18:00 +13°C° 0 mm 2 mps 741 mmHg 85%
19:00 +12°C° 0 mm 2 mps 741 mmHg 88%
20:00 +10°C° 0 mm 2 mps 741 mmHg 89%
21:00 +10°C° 0 mm 2 mps 742 mmHg 90%
22:00 +10°C° 0 mm 2 mps 742 mmHg 91%
23:00 +9°C° 0 mm 2 mps 742 mmHg 91%

Day after tomorrow, 25 October, Sunday

Time Temperature Precipitation Wind Pressure Humidity
00:00 +10°C° 0 mm 1 mps 742 mmHg 91%
01:00 +10°C° 0 mm 1 mps 742 mmHg 91%
02:00 +10°C° 0 mm 1 mps 742 mmHg 91%
03:00 +9°C° 0 mm 2 mps 742 mmHg 90%
04:00 +10°C° 0 mm 2 mps 742 mmHg 89%
05:00 +9°C° 0 mm 2 mps 742 mmHg 90%
06:00 +9°C° 0 mm 2 mps 742 mmHg 91%
07:00 +9°C° 0 mm 2 mps 742 mmHg 92%
08:00 +10°C° 0 mm 2 mps 742 mmHg 86%
09:00 +13°C° 0 mm 2 mps 742 mmHg 80%
10:00 +13°C° 0 mm 3 mps 742 mmHg 74%
11:00 +14°C° 0 mm 3 mps 742 mmHg 70%
12:00 +16°C° 0 mm 3 mps 741 mmHg 67%
13:00 +17°C° 0 mm 3 mps 741 mmHg 63%
14:00 +16°C° 0 mm 3 mps 741 mmHg 67%
15:00 +14°C° 0 mm 3 mps 740 mmHg 70%
16:00 +13°C° 0 mm 3 mps 740 mmHg 74%
17:00 +13°C° 0 mm 3 mps 740 mmHg 76%
18:00 +12°C° 0 mm 3 mps 740 mmHg 79%
19:00 +11°C° 0 mm 4 mps 740 mmHg 82%
20:00 +11°C° 0 mm 4 mps 740 mmHg 83%
21:00 +10°C° 0 mm 4 mps 740 mmHg 85%
22:00 +10°C° 0 mm 3 mps 740 mmHg 87%
23:00 +9°C° 0 mm 3 mps 739 mmHg 89%

, 26 October, Monday

Time Temperature Precipitation Wind Pressure Humidity
00:00 +9°C° 0 mm 3 mps 739 mmHg 91%
01:00 +9°C° 0 mm 3 mps 739 mmHg 93%
02:00 +8°C° 0 mm 3 mps 738 mmHg 93%
03:00 +8°C° 0 mm 3 mps 738 mmHg 93%
04:00 +8°C° 0 mm 2 mps 738 mmHg 94%
05:00 +8°C° 0 mm 3 mps 737 mmHg 93%
06:00 +8°C° 0 mm 3 mps 737 mmHg 93%
07:00 +8°C° 0 mm 3 mps 737 mmHg 93%
08:00 +9°C° 0 mm 3 mps 736 mmHg 87%
09:00 +11°C° 0 mm 4 mps 736 mmHg 81%
10:00 +12°C° 0 mm 4 mps 736 mmHg 75%
11:00 +13°C° 0 mm 5 mps 736 mmHg 73%
12:00 +14°C° 0 mm 5 mps 735 mmHg 72%
13:00 +15°C° 0 mm 5 mps 735 mmHg 70%
14:00 +15°C° 0 mm 5 mps 735 mmHg 71%
15:00 +14°C° 0 mm 4 mps 734 mmHg 73%
16:00 +14°C° 0 mm 4 mps 734 mmHg 75%
17:00 +13°C° 0 mm 4 mps 734 mmHg 77%
18:00 +12°C° 0 mm 4 mps 734 mmHg 80%
19:00 +12°C° 0 mm 4 mps 734 mmHg 83%
20:00 +11°C° 0 mm 3 mps 734 mmHg 83%
21:00 +11°C° 0 mm 3 mps 734 mmHg 84%
22:00 +11°C° 0 mm 3 mps 734 mmHg 85%
23:00 +11°C° 0 mm 3 mps 734 mmHg 84%

26 October, Monday

Time Temperature Precipitation Wind Pressure Humidity
00:00 +9°C° 0 mm 3 mps 739 mmHg 91%
01:00 +9°C° 0 mm 3 mps 739 mmHg 93%
02:00 +8°C° 0 mm 3 mps 738 mmHg 93%
03:00 +8°C° 0 mm 3 mps 738 mmHg 93%
04:00 +8°C° 0 mm 2 mps 738 mmHg 94%
05:00 +8°C° 0 mm 3 mps 737 mmHg 93%
06:00 +8°C° 0 mm 3 mps 737 mmHg 93%
07:00 +8°C° 0 mm 3 mps 737 mmHg 93%
08:00 +9°C° 0 mm 3 mps 736 mmHg 87%
09:00 +11°C° 0 mm 4 mps 736 mmHg 81%
10:00 +12°C° 0 mm 4 mps 736 mmHg 75%
11:00 +13°C° 0 mm 5 mps 736 mmHg 73%
12:00 +14°C° 0 mm 5 mps 735 mmHg 72%
13:00 +15°C° 0 mm 5 mps 735 mmHg 70%
14:00 +15°C° 0 mm 5 mps 735 mmHg 71%
15:00 +14°C° 0 mm 4 mps 734 mmHg 73%
16:00 +14°C° 0 mm 4 mps 734 mmHg 75%
17:00 +13°C° 0 mm 4 mps 734 mmHg 77%
18:00 +12°C° 0 mm 4 mps 734 mmHg 80%
19:00 +12°C° 0 mm 4 mps 734 mmHg 83%
20:00 +11°C° 0 mm 3 mps 734 mmHg 83%
21:00 +11°C° 0 mm 3 mps 734 mmHg 84%
22:00 +11°C° 0 mm 3 mps 734 mmHg 85%
23:00 +11°C° 0 mm 3 mps 734 mmHg 84%

27 October, Tuesday

Time Temperature Precipitation Wind Pressure Humidity
00:00 +11°C° 0 mm 4 mps 734 mmHg 83%
01:00 +11°C° 0 mm 4 mps 734 mmHg 82%
02:00 +11°C° 0 mm 4 mps 734 mmHg 81%
03:00 +11°C° 0 mm 4 mps 734 mmHg 80%
04:00 +11°C° 0 mm 4 mps 734 mmHg 78%
05:00 +11°C° 0 mm 4 mps 735 mmHg 80%
06:00 +10°C° 0 mm 4 mps 735 mmHg 81%
07:00 +10°C° 0 mm 3 mps 735 mmHg 83%
08:00 +12°C° 0 mm 3 mps 735 mmHg 78%
09:00 +13°C° 0 mm 3 mps 736 mmHg 72%
10:00 +16°C° 0 mm 3 mps 736 mmHg 67%
11:00 +17°C° 0 mm 3 mps 736 mmHg 64%
12:00 +18°C° 0 mm 3 mps 736 mmHg 62%
13:00 +19°C° 0 mm 3 mps 737 mmHg 59%
14:00 +18°C° 0 mm 3 mps 737 mmHg 63%
15:00 +17°C° 0 mm 2 mps 736 mmHg 68%
16:00 +16°C° 0 mm 2 mps 736 mmHg 72%
17:00 +15°C° 0 mm 2 mps 737 mmHg 75%
18:00 +15°C° 0 mm 2 mps 737 mmHg 78%
19:00 +14°C° 0 mm 2 mps 737 mmHg 80%
20:00 +13°C° 0 mm 2 mps 737 mmHg 83%
21:00 +13°C° 0 mm 2 mps 737 mmHg 85%
22:00 +12°C° 0 mm 2 mps 738 mmHg 87%
23:00 +12°C° 0 mm 1 mps 738 mmHg 88%

28 October, Wednesday

Time Temperature Precipitation Wind Pressure Humidity
00:00 +12°C° 0 mm 1 mps 738 mmHg 89%
01:00 +10°C° 0 mm 0 mps 738 mmHg 89%
02:00 +10°C° 0 mm 0 mps 738 mmHg 89%
03:00 +10°C° 0 mm 0 mps 738 mmHg 89%
04:00 +10°C° 0 mm 0 mps 738 mmHg 89%
05:00 +10°C° 0 mm 0 mps 738 mmHg 90%
06:00 +11°C° 0 mm 1 mps 738 mmHg 90%
07:00 +10°C° 0 mm 1 mps 738 mmHg 90%
08:00 +12°C° 0 mm 1 mps 739 mmHg 84%
09:00 +13°C° 0 mm 1 mps 739 mmHg 78%
10:00 +14°C° 0 mm 1 mps 739 mmHg 72%
11:00 +15°C° 0 mm 1 mps 739 mmHg 70%
12:00 +16°C° 0 mm 1 mps 739 mmHg 67%
13:00 +18°C° 0 mm 1 mps 739 mmHg 64%
14:00 +16°C° 0 mm 1 mps 739 mmHg 68%
15:00 +15°C° 0 mm 1 mps 739 mmHg 72%
16:00 +15°C° 0 mm 1 mps 739 mmHg 76%
17:00 +14°C° 0 mm 1 mps 739 mmHg 80%
18:00 +13°C° 0 mm 1 mps 739 mmHg 85%
19:00 +13°C° 0 mm 1 mps 739 mmHg 89%
20:00 +12°C° 0 mm 1 mps 740 mmHg 90%
21:00 +12°C° 0 mm 1 mps 740 mmHg 92%
22:00 +12°C° 0 mm 1 mps 740 mmHg 93%
23:00 +10°C° 0 mm 2 mps 740 mmHg 94%
Show more